• In Deutschland
  • Länderverzeichnis
  • Für 7 Tage
  • Wassertemperatur
  • Satellitenkarten
  • Wetterkarte
  • Widgets
  • user-avatar
    Anmelden

    Stündliche Wetter Chios

    Heute, 24 Oktober, Mittwoch

    Zeit Temperatur Niederschläge Wind Luftdruck Luftfeuchtigkeit
    00:00 +18°C° 0 mm 3 m/S 753 mmHg 81%
    01:00 +18°C° 0 mm 3 m/S 753 mmHg 82%
    02:00 +18°C° 0 mm 4 m/S 753 mmHg 83%
    03:00 +18°C° 0 mm 3 m/S 752 mmHg 84%
    04:00 +18°C° 0 mm 3 m/S 752 mmHg 84%
    05:00 +18°C° 0 mm 3 m/S 752 mmHg 85%
    06:00 +18°C° 0 mm 3 m/S 752 mmHg 83%
    07:00 +18°C° 0 mm 4 m/S 751 mmHg 82%
    08:00 +19°C° 0 mm 4 m/S 751 mmHg 80%
    09:00 +19°C° 0 mm 4 m/S 751 mmHg 78%
    10:00 +20°C° 0 mm 3 m/S 751 mmHg 75%
    11:00 +20°C° 0 mm 3 m/S 751 mmHg 72%
    12:00 +20°C° 0 mm 4 m/S 750 mmHg 72%
    13:00 +21°C° 0 mm 4 m/S 750 mmHg 72%
    14:00 +21°C° 0 mm 4 m/S 750 mmHg 72%
    15:00 +20°C° 0 mm 4 m/S 749 mmHg 73%
    16:00 +20°C° 0 mm 4 m/S 749 mmHg 75%
    17:00 +19°C° 0 mm 4 m/S 748 mmHg 77%
    18:00 +19°C° 0 mm 4 m/S 749 mmHg 78%
    19:00 +19°C° 0 mm 3 m/S 749 mmHg 78%
    20:00 +18°C° 0 mm 3 m/S 749 mmHg 79%
    21:00 +18°C° 0 mm 3 m/S 749 mmHg 79%
    22:00 +18°C° 0 mm 3 m/S 749 mmHg 80%
    23:00 +18°C° 0 mm 3 m/S 749 mmHg 80%

    Morgen, 25 Oktober, Donnerstag

    Zeit Temperatur Niederschläge Wind Luftdruck Luftfeuchtigkeit
    00:00 +18°C° 0.1 mm 4 m/S 749 mmHg 80%
    01:00 +18°C° 0.1 mm 4 m/S 749 mmHg 80%
    02:00 +19°C° 0.1 mm 5 m/S 749 mmHg 79%
    03:00 +17°C° 0.2 mm 7 m/S 750 mmHg 77%
    04:00 +17°C° 0.2 mm 9 m/S 750 mmHg 75%
    05:00 +17°C° 0.2 mm 12 m/S 751 mmHg 72%
    06:00 +16°C° 0 mm 11 m/S 752 mmHg 67%
    07:00 +13°C° 0 mm 11 m/S 753 mmHg 62%
    08:00 +12°C° 0 mm 11 m/S 753 mmHg 56%
    09:00 +12°C° 0 mm 11 m/S 754 mmHg 51%
    10:00 +12°C° 0 mm 10 m/S 755 mmHg 45%
    11:00 +13°C° 0 mm 9 m/S 756 mmHg 39%
    12:00 +13°C° 0 mm 9 m/S 756 mmHg 38%
    13:00 +13°C° 0 mm 9 m/S 756 mmHg 36%
    14:00 +15°C° 0 mm 9 m/S 756 mmHg 34%
    15:00 +13°C° 0 mm 9 m/S 756 mmHg 35%
    16:00 +13°C° 0 mm 8 m/S 756 mmHg 35%
    17:00 +13°C° 0 mm 8 m/S 756 mmHg 36%
    18:00 +13°C° 0 mm 8 m/S 757 mmHg 36%
    19:00 +14°C° 0 mm 7 m/S 757 mmHg 36%
    20:00 +12°C° 0 mm 7 m/S 758 mmHg 36%
    21:00 +13°C° 0 mm 6 m/S 758 mmHg 37%
    22:00 +13°C° 0 mm 6 m/S 758 mmHg 37%
    23:00 +13°C° 0 mm 5 m/S 759 mmHg 37%

    übermorgen, 26 Oktober, Freitag

    Zeit Temperatur Niederschläge Wind Luftdruck Luftfeuchtigkeit
    00:00 +13°C° 0 mm 5 m/S 759 mmHg 38%
    01:00 +13°C° 0 mm 4 m/S 759 mmHg 38%
    02:00 +12°C° 0 mm 4 m/S 759 mmHg 39%
    03:00 +12°C° 0 mm 3 m/S 759 mmHg 40%
    04:00 +12°C° 0 mm 3 m/S 759 mmHg 42%
    05:00 +12°C° 0 mm 3 m/S 759 mmHg 44%
    06:00 +13°C° 0 mm 2 m/S 759 mmHg 44%
    07:00 +14°C° 0 mm 2 m/S 759 mmHg 44%
    08:00 +14°C° 0 mm 2 m/S 759 mmHg 45%
    09:00 +15°C° 0 mm 2 m/S 760 mmHg 41%
    10:00 +16°C° 0 mm 2 m/S 760 mmHg 37%
    11:00 +18°C° 0 mm 1 m/S 760 mmHg 33%
    12:00 +19°C° 0 mm 1 m/S 760 mmHg 33%
    13:00 +19°C° 0 mm 1 m/S 760 mmHg 33%
    14:00 +20°C° 0 mm 1 m/S 759 mmHg 32%
    15:00 +18°C° 0 mm 2 m/S 759 mmHg 35%
    16:00 +18°C° 0 mm 2 m/S 759 mmHg 38%
    17:00 +18°C° 0 mm 2 m/S 759 mmHg 41%
    18:00 +17°C° 0 mm 2 m/S 759 mmHg 44%
    19:00 +17°C° 0 mm 2 m/S 760 mmHg 47%
    20:00 +17°C° 0 mm 2 m/S 760 mmHg 50%
    21:00 +16°C° 0 mm 2 m/S 760 mmHg 51%
    22:00 +16°C° 0 mm 2 m/S 760 mmHg 53%
    23:00 +16°C° 0 mm 2 m/S 760 mmHg 54%

    27 Oktober, Samstag

    Zeit Temperatur Niederschläge Wind Luftdruck Luftfeuchtigkeit
    00:00 +16°C° 0 mm 2 m/S 760 mmHg 56%
    01:00 +16°C° 0 mm 2 m/S 760 mmHg 57%
    02:00 +16°C° 0 mm 3 m/S 760 mmHg 58%
    03:00 +16°C° 0 mm 3 m/S 760 mmHg 59%
    04:00 +16°C° 0 mm 3 m/S 759 mmHg 59%
    05:00 +16°C° 0 mm 3 m/S 759 mmHg 60%
    06:00 +17°C° 0 mm 4 m/S 759 mmHg 59%
    07:00 +17°C° 0 mm 4 m/S 760 mmHg 58%
    08:00 +17°C° 0 mm 5 m/S 760 mmHg 57%
    09:00 +19°C° 0 mm 5 m/S 760 mmHg 54%
    10:00 +20°C° 0 mm 5 m/S 760 mmHg 52%
    11:00 +21°C° 0 mm 6 m/S 760 mmHg 50%
    12:00 +21°C° 0 mm 6 m/S 760 mmHg 53%
    13:00 +21°C° 0 mm 6 m/S 760 mmHg 56%
    14:00 +22°C° 0 mm 6 m/S 759 mmHg 59%
    15:00 +21°C° 0 mm 7 m/S 759 mmHg 64%
    16:00 +21°C° 0 mm 7 m/S 759 mmHg 70%
    17:00 +20°C° 0 mm 7 m/S 759 mmHg 75%
    18:00 +20°C° 0 mm 7 m/S 759 mmHg 76%
    19:00 +20°C° 0 mm 7 m/S 759 mmHg 76%
    20:00 +18°C° 0 mm 7 m/S 760 mmHg 77%
    21:00 +18°C° 0 mm 7 m/S 760 mmHg 75%
    22:00 +19°C° 0 mm 6 m/S 760 mmHg 74%
    23:00 +19°C° 0 mm 6 m/S 760 mmHg 73%

    28 Oktober, Sonntag

    Zeit Temperatur Niederschläge Wind Luftdruck Luftfeuchtigkeit
    00:00 +19°C° 0 mm 6 m/S 760 mmHg 73%
    01:00 +19°C° 0 mm 6 m/S 759 mmHg 73%
    02:00 +19°C° 0 mm 6 m/S 759 mmHg 73%
    03:00 +19°C° 0 mm 6 m/S 759 mmHg 75%
    04:00 +19°C° 0 mm 6 m/S 759 mmHg 76%
    05:00 +19°C° 0 mm 5 m/S 759 mmHg 78%
    06:00 +19°C° 0 mm 6 m/S 760 mmHg 77%
    07:00 +19°C° 0 mm 6 m/S 760 mmHg 77%
    08:00 +19°C° 0 mm 6 m/S 760 mmHg 76%
    09:00 +20°C° 0 mm 6 m/S 760 mmHg 72%
    10:00 +21°C° 0 mm 6 m/S 760 mmHg 68%
    11:00 +22°C° 0 mm 6 m/S 760 mmHg 64%
    12:00 +22°C° 0 mm 6 m/S 760 mmHg 63%
    13:00 +22°C° 0 mm 6 m/S 759 mmHg 62%
    14:00 +22°C° 0 mm 6 m/S 759 mmHg 62%
    15:00 +22°C° 0 mm 6 m/S 759 mmHg 65%
    16:00 +21°C° 0 mm 6 m/S 759 mmHg 68%
    17:00 +21°C° 0 mm 6 m/S 759 mmHg 71%
    18:00 +20°C° 0 mm 6 m/S 759 mmHg 74%
    19:00 +20°C° 0 mm 5 m/S 759 mmHg 77%
    20:00 +20°C° 0 mm 5 m/S 759 mmHg 80%
    21:00 +20°C° 0 mm 5 m/S 759 mmHg 81%
    22:00 +19°C° 0 mm 5 m/S 759 mmHg 82%
    23:00 +19°C° 0 mm 5 m/S 759 mmHg 83%

    29 Oktober, Montag

    Zeit Temperatur Niederschläge Wind Luftdruck Luftfeuchtigkeit
    00:00 +19°C° 0 mm 5 m/S 759 mmHg 84%
    01:00 +19°C° 0 mm 5 m/S 759 mmHg 85%
    02:00 +19°C° 0 mm 5 m/S 759 mmHg 85%
    03:00 +19°C° 0 mm 5 m/S 759 mmHg 86%
    04:00 +19°C° 0 mm 5 m/S 758 mmHg 86%
    05:00 +19°C° 0 mm 5 m/S 758 mmHg 87%
    06:00 +19°C° 0 mm 6 m/S 758 mmHg 85%
    07:00 +19°C° 0 mm 6 m/S 759 mmHg 83%
    08:00 +19°C° 0 mm 6 m/S 759 mmHg 80%
    09:00 +20°C° 0 mm 6 m/S 759 mmHg 76%
    10:00 +21°C° 0 mm 7 m/S 759 mmHg 72%
    11:00 +22°C° 0 mm 7 m/S 759 mmHg 67%
    12:00 +22°C° 0 mm 7 m/S 758 mmHg 68%
    13:00 +22°C° 0 mm 7 m/S 758 mmHg 69%
    14:00 +22°C° 0 mm 7 m/S 758 mmHg 69%
    15:00 +22°C° 0 mm 7 m/S 758 mmHg 73%
    16:00 +21°C° 0 mm 6 m/S 758 mmHg 76%
    17:00 +21°C° 0 mm 6 m/S 758 mmHg 80%
    18:00 +21°C° 0 mm 6 m/S 758 mmHg 82%
    19:00 +20°C° 0 mm 6 m/S 758 mmHg 84%
    20:00 +20°C° 0 mm 6 m/S 758 mmHg 87%
    21:00 +20°C° 0 mm 6 m/S 758 mmHg 85%
    22:00 +20°C° 0 mm 6 m/S 758 mmHg 84%
    23:00 +20°C° 0 mm 6 m/S 758 mmHg 82%

    30 Oktober, Dienstag

    Zeit Temperatur Niederschläge Wind Luftdruck Luftfeuchtigkeit
    00:00 +20°C° 0 mm 6 m/S 758 mmHg 81%
    01:00 +20°C° 0 mm 6 m/S 757 mmHg 80%
    02:00 +20°C° 0 mm 6 m/S 757 mmHg 80%
    03:00 +20°C° 0 mm 6 m/S 757 mmHg 80%
    04:00 +19°C° 0 mm 6 m/S 757 mmHg 80%
    05:00 +19°C° 0 mm 5 m/S 757 mmHg 80%
    06:00 +19°C° 0 mm 6 m/S 757 mmHg 76%
    07:00 +20°C° 0 mm 6 m/S 757 mmHg 73%
    08:00 +20°C° 0 mm 6 m/S 757 mmHg 69%
    09:00 +21°C° 0 mm 7 m/S 757 mmHg 65%
    10:00 +22°C° 0 mm 7 m/S 756 mmHg 61%
    11:00 +23°C° 0 mm 8 m/S 756 mmHg 57%
    12:00 +23°C° 0 mm 8 m/S 756 mmHg 58%
    13:00 +24°C° 0 mm 9 m/S 755 mmHg 59%
    14:00 +24°C° 0 mm 9 m/S 755 mmHg 60%
    15:00 +23°C° 0 mm 9 m/S 755 mmHg 64%
    16:00 +23°C° 0 mm 10 m/S 755 mmHg 68%
    17:00 +22°C° 0 mm 10 m/S 755 mmHg 72%
    18:00 +22°C° 0 mm 10 m/S 755 mmHg 72%
    19:00 +22°C° 0 mm 10 m/S 755 mmHg 73%
    20:00 +22°C° 0 mm 9 m/S 756 mmHg 74%
    21:00 +22°C° 0 mm 9 m/S 756 mmHg 76%
    22:00 +22°C° 0 mm 9 m/S 756 mmHg 78%
    23:00 +22°C° 0 mm 9 m/S 757 mmHg 80%
    Mehr zeigen